Regional Weather Roundup
Issued by NWS

Home | Current Version | Previous Version | Graphics & Text | Print | Product List | Glossary On
Versions: 1 2 3 4 5 6 7 8 9 10 11 12 13 14 15 16 17 18 19 20 21 22 23 24 25 26 27 28 29 30 31 32 33 34 35 36 37 38 39 40 41 42 43 44 45 46 47 48 49 50
000
ASUS43 KIND 280709
RWRIN

WEATHER ROUNDUP FOR INDIANA
NATIONAL WEATHER SERVICE INDIANAPOLIS IN
200 AM EST SUN DEC 28 2014

NOTE: "FAIR" INDICATES FEW OR NO CLOUDS BELOW 12,000 FEET WITH NO
SIGNIFICANT WEATHER AND/OR OBSTRUCTIONS TO VISIBILITY.

* - STATION DOES NOT REPORT WEATHER SUCH AS PRECIPITATION OR FOG.

+ - STATION NOT QUALITY CONTROLLED BY THE NATIONAL WEATHER SERVICE.
    USE DATA WITH CAUTION...ESPECIALLY DEWPOINT AND RELATIVE
    HUMIDITY OBSERVATIONS.

INZ001>003-010>013-019-020-280800-
NORTHWEST INDIANA

CITY           SKY/WX    TMP DP  RH WIND       PRES   REMARKS
GARY /AIRPORT/ CLOUDY    33  23  66 W12       30.11R WCI  25
KNOX *+        CLOUDY    33  26  75 W8        30.08S WCI  26
LA PORTE +     CLOUDY    35  29  78 W5        30.08S WCI  31
MICHIGAN CITY+ CLOUDY    34  23  64 NW6       30.09R WCI  29
MONTICELLO +   CLOUDY    32  28  85 NW9       30.10R WCI  24
RENSSELAER +   CLOUDY    32  30  93 W9        30.11S WCI  24
VALPARAISO     CLOUDY    32  26  78 W8        30.09R WCI  25

$$

LMZ046-743>745-280800-
SOUTHERN LAKE MICHIGAN

STATION/POSITION TIME  TEMP WIND        PRES
                       AIR  DIR/SP/G
                 (UTC) (F)  (DEG/KT/KT) (MB)
MICHIGAN CITY    0700   34  280/ 13/ 14   N/A

$$

INZ004-005-014>016-021>024-280800-
NORTH CENTRAL INDIANA

CITY           SKY/WX    TMP DP  RH WIND       PRES   REMARKS
GOSHEN         CLOUDY    34  28  79 NW13      30.04F WCI  25
LOGANSPORT +   CLOUDY    32  28  86 NW7       30.10S WCI  26
PERU/GRISSOM   CLOUDY    32  32 100 NW14      30.07S WCI  22
ROCHESTER +    CLOUDY    34  32  93 W7        30.08R WCI  28
SOUTH BEND     CLOUDY    35  28  75 W8        30.06S WCI  29
WARSAW +       CLOUDY    32  30  93 W7        30.05S WCI  26

$$

INZ006>009-017-018-025>027-280800-
NORTHEAST INDIANA

CITY           SKY/WX    TMP DP  RH WIND       PRES   REMARKS
ANGOLA *+      CLOUDY    34  28  80 NW12      30.02S WCI  25
AUBURN +       CLOUDY    34  30  86 W7        30.03F WCI  28
FORT WAYNE     CLOUDY    34  30  85 W7        30.06R WCI  28
HUNTINGTON +   CLOUDY    32  28  83 W6        30.06R WCI  26

$$

INZ028-029-035-036-043>045-051>053-280800-
WEST CENTRAL INDIANA

CITY           SKY/WX    TMP DP  RH WIND       PRES   REMARKS
GREENCASTLE +  CLOUDY    32  28  86 N12       30.11S WCI  23
LAFAYETTE      CLOUDY    31  27  85 NW10      30.11S WCI  22
TERRE HAUTE    CLOUDY    33  28  81 NW9       30.14R WCI  25

$$

INZ030>032-037>040-046>048-054>057-064-065-280800-
CENTRAL INDIANA

CITY           SKY/WX    TMP DP  RH WIND       PRES   REMARKS
CP ATTERBURY + CLOUDY    36  34  93 MISG      30.09S
FRANKFORT +    CLOUDY    32  32 100 NW10G20   30.11S WCI  23
GREENWOOD *+   CLOUDY    36  32  87 NW9       30.08
INDIANAPOLIS   LGT RAIN  32  30  92 NW12      30.09S WCI  23
-EAGLE CREEK   CLOUDY    32  30  92 NW8       30.09S WCI  25
KOKOMO *+      CLOUDY    32  27  80 NW13      30.08S WCI  22
MARION +       CLOUDY    32  29  90 NW8       30.08R WCI  25
MT COMFORT *+  CLOUDY    34  34 100 NW9       30.09R WCI  26
SHELBYVILLE    CLOUDY    37  33  85 NW10      30.08R
ZIONSVILLE +   CLOUDY    33  29  88 NW9       30.09S WCI  25

$$

INZ033-034-041-042-049-050-058-059-280800-
EAST CENTRAL INDIANA

CITY           SKY/WX    TMP DP  RH WIND       PRES   REMARKS
MUNCIE         CLOUDY    33  31  92 NW9       30.06S FOG     WCI  25

$$

INZ060-061-067>069-081>083-085>088-280800-
SOUTHWEST INDIANA

CITY           SKY/WX    TMP DP  RH WIND       PRES   REMARKS
EVANSVILLE     CLOUDY    39  35  86 N8        30.14S
HUNTINGBURG *+ CLOUDY    37  36  93 N7        30.13R
WASHINGTON +   CLOUDY    36  32  85 N9        30.13R

$$

INZ062-063-066-070>080-084-089>092-280800-
SOUTH CENTRAL AND SOUTHEAST INDIANA

CITY           SKY/WX    TMP DP  RH WIND       PRES   REMARKS
BLOOMINGTON    CLOUDY    36  34  92 VRB7      30.10R
NORTH VERNON + CLOUDY    39  39 100 NW12G18   30.08
SEYMOUR +      CLOUDY    39  39 100 NW10      30.08

$$




USA.gov is the U.S. government's official web portal to all federal, state and local government web resources and services.